Weather History for Darwin Airport, Northern Territory

Change the Weather History Date:

Thursday, May 9, 2013

  Actual Average Record
Temperature  
Mean Temperature 84 °F -  
Max Temperature 92 °F 89 °F - ()
Min Temperature 75 °F 71 °F - ()
Cooling Degree Days 18    
Growing Degree Days 34 (Base 50)    
Moisture  
Dew Point 70 °F    
Average Humidity 67    
Maximum Humidity 89    
Minimum Humidity 25    
Precipitation  
Precipitation 0.00 in 0.03 in - ()
Sea Level Pressure  
Sea Level Pressure 29.85 in    
Wind  
Wind Speed 7 mph ()    
Max Wind Speed 15 mph    
Max Gust Speed -    
Visibility 10.7 miles    
Events      
T = Trace of Precipitation, MM = Missing Value Source: Averaged Metar Reports

Daily Weather History Graph

Daily Weather History Graph

Search for Another Location

Airport:

Trip Planner

Search our weather history database for the weather conditions in past years. The results will help you decide how hot, cold, wet, or windy it might be!

Date:

Astronomy

May. 09, 2013 Rise Set
Actual Time 6:55 AM ACST 6:30 PM ACST
Civil Twilight 6:32 AM ACST 6:52 PM ACST
Nautical Twilight 6:07 AM ACST 7:18 PM ACST
Astronomical Twilight 5:41 AM ACST 7:43 PM ACST
Moon 6:03 AM ACST (5/9) 5:57 PM ACST (5/9)
Length of Visible Light 12h 19m
Length of Day
11h 35m
Waning Crescent, 1% of the Moon is Illuminated
May 9
Waning Crescent
May 10
New
May 18
First Quarter
May 25
Full
Jun 1
Last Quarter

Hourly Weather History & Observations

Time (ACST) Temp. Heat Index Dew Point Humidity Pressure Visibility Wind Dir Wind Speed Gust Speed Precip Events Conditions
12:00 AM 78 °F - 72 °F 78% 29.88 in 19 mi North 6.9 mph - -   Partly Cloudy
12:00 AM 77.0 °F - 71.6 °F 83% 29.86 in - North 6.9 mph - N/A   Clear
12:30 AM 78 °F - 73 °F 79% 29.87 in - North 4.6 mph - -  
12:30 AM 77.0 °F - 73.4 °F 89% 29.86 in - North 4.6 mph - N/A   Clear
1:00 AM 77.0 °F - 73.4 °F 89% 29.86 in - North 2.3 mph - N/A   Clear
1:30 AM 77.0 °F - 73.4 °F 89% 29.86 in - Calm Calm - N/A   Clear
2:00 AM 77.0 °F - 73.4 °F 89% 29.86 in - Calm Calm - N/A   Clear
2:30 AM 77.0 °F - 73.4 °F 89% 29.86 in - SSE 6.9 mph - N/A   Clear
3:00 AM 76 °F - 73 °F 88% 29.85 in 19 mi SSE 5.8 mph - -   Partly Cloudy
3:00 AM 77.0 °F - 73.4 °F 89% 29.83 in - SSE 5.8 mph - N/A   Clear
3:30 AM 76 °F - 72 °F 86% 29.85 in - SE 8.1 mph - -  
3:30 AM 77.0 °F - 73.4 °F 89% 29.83 in - SE 8.1 mph - N/A   Clear
4:00 AM 75.2 °F - 71.6 °F 89% 29.83 in 6.2 mi SE 6.9 mph - N/A   Partly Cloudy
4:30 AM 75.2 °F - 69.8 °F 83% 29.83 in - SE 8.1 mph - N/A   Clear
5:00 AM 75.2 °F - 71.6 °F 89% 29.86 in 6.2 mi SE 9.2 mph - N/A   Partly Cloudy
5:30 AM 75.2 °F - 69.8 °F 83% 29.86 in 6.2 mi SE 6.9 mph - N/A   Partly Cloudy
6:00 AM 76 °F - 70 °F 77% 29.86 in 19 mi SE 8.1 mph - -   Partly Cloudy
6:00 AM 75.2 °F - 69.8 °F 83% 29.86 in 6.2 mi SE 8.1 mph - N/A   Partly Cloudy
6:30 AM 76 °F - 70 °F 77% 29.87 in - SE 9.2 mph - -  
6:30 AM 75.2 °F - 69.8 °F 83% 29.86 in 6.2 mi SE 9.2 mph - N/A   Partly Cloudy
7:00 AM 75.2 °F - 69.8 °F 83% 29.89 in 6.2 mi SE 9.2 mph - N/A   Partly Cloudy
7:30 AM 77.0 °F - 69.8 °F 78% 29.89 in 6.2 mi ESE 10.4 mph - N/A   Partly Cloudy
8:00 AM 77.0 °F - 69.8 °F 78% 29.92 in 6.2 mi ESE 10.4 mph - N/A   Scattered Clouds
8:30 AM 80.6 °F 84.6 °F 71.6 °F 74% 29.92 in 6.2 mi ESE 10.4 mph - N/A   Partly Cloudy
9:00 AM 82 °F - 69 °F 57% 29.91 in 19 mi SE 11.5 mph - -   Partly Cloudy
9:00 AM 82.4 °F 86.3 °F 69.8 °F 66% 29.92 in 6.2 mi SE 11.5 mph - N/A   Partly Cloudy
9:30 AM 84 °F - 69 °F 51% 29.91 in - ESE 15.0 mph - -  
9:30 AM 84.2 °F 87.3 °F 68.0 °F 58% 29.92 in 6.2 mi ESE 15.0 mph - N/A   Partly Cloudy
10:00 AM 86.0 °F 89.4 °F 68.0 °F 55% 29.92 in - East 13.8 mph - N/A   Clear
10:30 AM 87.8 °F 90.4 °F 66.2 °F 49% 29.89 in - East 11.5 mph - N/A   Clear
11:00 AM 87.8 °F 90.4 °F 66.2 °F 49% 29.89 in 6.2 mi East 12.7 mph - N/A   Partly Cloudy
11:30 AM 87.8 °F 89.4 °F 64.4 °F 46% 29.89 in - East 11.5 mph - N/A   Clear
12:00 PM 90 °F - 66 °F 36% 29.87 in 19 mi ESE 11.5 mph - -   Partly Cloudy
12:00 PM 89.6 °F 92.2 °F 66.2 °F 46% 29.86 in 6.2 mi ESE 11.5 mph - N/A   Mostly Cloudy
12:30 PM 89 °F - 64 °F 33% 29.86 in - East 12.7 mph - -  
12:30 PM 89.6 °F 91.1 °F 64.4 °F 43% 29.86 in 6.2 mi East 12.7 mph - N/A   Mostly Cloudy
1:00 PM 91.4 °F 93.2 °F 64.4 °F 41% 29.83 in 6.2 mi ESE 13.8 mph - N/A   Mostly Cloudy
1:30 PM 91.4 °F 93.2 °F 64.4 °F 41% 29.80 in - ENE 11.5 mph - N/A   Clear
2:00 PM 89.6 °F 90.1 °F 62.6 °F 40% 29.80 in - ESE 15.0 mph - N/A   Clear
2:30 PM 91.4 °F 92.1 °F 62.6 °F 38% 29.80 in - East 10.4 mph - N/A   Clear
3:00 PM 92 °F - 61 °F 25% 29.78 in 19 mi ESE 10.4 mph - -   Partly Cloudy
3:00 PM 91.4 °F 91.4 °F 60.8 °F 36% 29.77 in - ESE 10.4 mph - N/A   Clear
3:30 PM 91 °F - 61 °F 27% 29.78 in - ESE 10.4 mph - -  
3:30 PM 91.4 °F 91.4 °F 60.8 °F 36% 29.77 in - ESE 10.4 mph - N/A   Clear
4:00 PM 91.4 °F 91.4 °F 60.8 °F 36% 29.77 in - East 8.1 mph - N/A   Clear
4:30 PM 91.4 °F 91.4 °F 60.8 °F 36% 29.77 in - East 11.5 mph - N/A   Clear
5:00 PM 87.8 °F 93.8 °F 71.6 °F 58% 29.77 in - North - - N/A   Clear
5:30 PM 86.0 °F 91.8 °F 71.6 °F 62% 29.77 in - NNE 11.5 mph - N/A   Clear
6:00 PM 86 °F - 72 °F 54% 29.81 in 19 mi NNE 10.4 mph - -   Partly Cloudy
6:00 PM 86.0 °F 91.8 °F 71.6 °F 62% 29.80 in - North 10.4 mph - N/A   Clear
6:30 PM 84 °F - 72 °F 60% 29.81 in - NNE 10.4 mph - -  
6:30 PM 84.2 °F 89.6 °F 71.6 °F 66% 29.80 in - NNE 10.4 mph - N/A   Clear
7:00 PM 82.4 °F 88.2 °F 73.4 °F 74% 29.80 in - NNE 8.1 mph - N/A   Clear
7:30 PM 82.4 °F 88.2 °F 73.4 °F 74% 29.83 in - NNE 8.1 mph - N/A   Clear
8:00 PM 80.6 °F 85.4 °F 73.4 °F 79% 29.83 in - NNE 6.9 mph - N/A   Clear
8:30 PM 80.6 °F 85.4 °F 73.4 °F 79% 29.86 in - NNE 6.9 mph - N/A   Clear
9:00 PM 80 °F - 73 °F 75% 29.86 in 19 mi ENE 4.6 mph - -   Partly Cloudy
9:00 PM 80.6 °F 85.4 °F 73.4 °F 79% 29.86 in - ENE 4.6 mph - N/A   Clear
9:30 PM 80 °F - 74 °F 76% 29.86 in - ENE 3.5 mph - -  
9:30 PM 78.8 °F - 73.4 °F 83% 29.86 in - ENE 3.5 mph - N/A   Clear
10:00 PM 78.8 °F - 73.4 °F 83% 29.86 in - ESE 3.5 mph - N/A   Clear
10:30 PM 78.8 °F - 73.4 °F 83% 29.86 in - South 6.9 mph - N/A   Clear
11:00 PM 78.8 °F - 73.4 °F 83% 29.86 in - South 5.8 mph - N/A   Clear
11:30 PM 78.8 °F - 73.4 °F 83% 29.89 in - SSE 3.5 mph - N/A   Clear